BRITE-AUSTRIA

Last updated on Mon Oct 20 2025 00:03:35 GMT+0000 (Coordinated Universal Time)

1 39091U 13009F 25292.27148954 .00000469 00000+0 17459-3 0 9992 2 39091 98.3908 112.7935 0009231 236.2451 123.7857 14.36388467662464
UTC large
Height (km)
Speed (km/s)
/
Latitude / Longitude
Inclination (degrees)
Orbital Period (minutes)
Azimuth
Elevation
Range (km)
Doppler Factor

Next 0 passes for location: London (51.5072 / 0.1276)

Sorry there are no passes over London.